TimeCDT,TemperatureF,Dew PointF,Humidity,Sea Level PressureIn,VisibilityMPH,Wind Direction,Wind SpeedMPH,Gust SpeedMPH,PrecipitationIn,Events,Conditions,WindDirDegrees,DateUTC
12:53 AM,43.0,37.9,82,30.00,10.0,Calm,Calm,-,N/A,,Clear,0,2013-05-08 05:53:00
1:53 AM,41.0,37.0,86,30.00,10.0,Calm,Calm,-,N/A,,Clear,0,2013-05-08 06:53:00
2:53 AM,39.0,36.0,89,30.00,10.0,Calm,Calm,-,N/A,,Clear,0,2013-05-08 07:53:00
3:53 AM,37.9,35.1,89,30.01,10.0,Calm,Calm,-,N/A,,Clear,0,2013-05-08 08:53:00
4:53 AM,37.0,35.1,93,30.01,10.0,Calm,Calm,-,N/A,,Clear,0,2013-05-08 09:53:00
5:53 AM,37.0,34.0,89,30.02,10.0,Calm,Calm,-,N/A,,Clear,0,2013-05-08 10:53:00
6:53 AM,42.1,37.9,85,30.02,10.0,Calm,Calm,-,N/A,,Clear,0,2013-05-08 11:53:00
7:53 AM,53.1,42.1,66,30.03,10.0,Calm,Calm,-,N/A,,Scattered Clouds,0,2013-05-08 12:53:00
8:53 AM,66.0,46.0,48,30.03,10.0,Calm,Calm,-,N/A,,Partly Cloudy,0,2013-05-08 13:53:00
9:53 AM,71.1,46.0,41,30.03,10.0,Calm,Calm,-,N/A,,Clear,0,2013-05-08 14:53:00
10:53 AM,73.9,46.0,37,30.02,10.0,South,5.8,-,N/A,,Clear,180,2013-05-08 15:53:00
11:53 AM,73.0,44.1,35,30.02,10.0,SSW,3.5,-,N/A,,Overcast,200,2013-05-08 16:53:00
12:53 PM,73.9,41.0,30,30.01,10.0,SSW,3.5,-,N/A,,Clear,210,2013-05-08 17:53:00
1:53 PM,71.1,46.9,42,30.02,10.0,Calm,Calm,-,N/A,,Mostly Cloudy,0,2013-05-08 18:53:00
2:53 PM,61.0,54.0,78,30.06,3.0,East,6.9,-,0.03,Rain,Light Rain,100,2013-05-08 19:53:00
3:53 PM,66.0,55.0,68,30.03,10.0,Calm,Calm,-,0.00,,Scattered Clouds,0,2013-05-08 20:53:00
4:53 PM,69.1,52.0,54,30.01,10.0,Calm,Calm,-,N/A,,Mostly Cloudy,0,2013-05-08 21:53:00
5:53 PM,68.0,50.0,52,30.01,10.0,NNE,3.5,-,N/A,,Overcast,30,2013-05-08 22:53:00
6:53 PM,64.9,51.1,61,30.01,10.0,Calm,Calm,-,0.00,Rain,Light Rain,0,2013-05-08 23:53:00
7:53 PM,62.1,51.1,67,30.02,10.0,Calm,Calm,-,0.00,,Overcast,0,2013-05-09 00:53:00
8:53 PM,60.1,51.1,72,30.04,10.0,ENE,6.9,-,0.02,Rain,Light Rain,70,2013-05-09 01:53:00
9:53 PM,59.0,51.1,75,30.03,10.0,NNE,4.6,-,0.00,,Overcast,20,2013-05-09 02:53:00
10:53 PM,57.9,51.1,78,30.01,10.0,NNE,4.6,-,0.00,Rain,Light Rain,20,2013-05-09 03:53:00
11:53 PM,55.9,50.0,80,30.01,10.0,NNE,4.6,-,0.00,,Mostly Cloudy,30,2013-05-09 04:53:00